Overview Statistics Trail Chart Weather Telemetry Raw packets
 

This is the latest recevied weather packets stored in our database for station/object AI5BL. If no packets are shown the sender has not sent any weather packets the latest 10 day(s).

<< 95 96 97 98 99 100 101 >>
Time Temp. Humidity Pressure Rain* Wind** Luminosity Snow
1787938521 34.44° C 58% 1019.3 hPa 0 mm - 854 W/m² -
1787938217 33.33° C 59% 1019.2 hPa 0 mm - 795 W/m² -
1787937917 32.78° C 60% 1019.4 hPa 0 mm - 850 W/m² -
1787937613 33.33° C 57% 1019.5 hPa 0 mm - 840 W/m² -
1787937309 33.33° C 57% 1019.4 hPa 0 mm - 775 W/m² -
1787937004 33.89° C 60% 1019.5 hPa 0 mm - 817 W/m² -
1787936698 32.78° C 64% 1019.6 hPa 0 mm - 790 W/m² -
1787936397 32.78° C 63% 1019.6 hPa 0 mm - 833 W/m² -
1787936093 32.78° C 66% 1019.8 hPa 0 mm - 208 W/m² -
1787935789 31.67° C 70% 1019.8 hPa 0 mm - 755 W/m² -
1787935484 30.56° C 70% 1019.8 hPa 0 mm - 823 W/m² -
1787935180 31.11° C 68% 1019.8 hPa 0 mm - 140 W/m² -
1787934875 31.67° C 69% 1019.9 hPa 0 mm - 180 W/m² -
1787934574 31.67° C 70% 1019.8 hPa 0 mm - 818 W/m² -
1787934269 31.11° C 69% 1019.7 hPa 0 mm - 768 W/m² -
1787933969 31.11° C 70% 1019.8 hPa 0 mm - 171 W/m² -
1787933669 31.11° C 70% 1019.7 hPa 0 mm - 224 W/m² -
1787933363 30° C 75% 1019.8 hPa 0 mm - 201 W/m² -
1787933063 29.44° C 75% 1019.8 hPa 0 mm - 138 W/m² -
1787932761 29.44° C 78% 1019.8 hPa 0 mm - 670 W/m² -
1787932460 29.44° C 76% 1019.7 hPa 0 mm - 113 W/m² -
1787932156 30.56° C 76% 1019.8 hPa 0 mm - 170 W/m² -
1787931854 31.11° C 73% 1019.7 hPa 0 mm - 121 W/m² -
1787931550 30.56° C 75% 1019.6 hPa 0 mm - 704 W/m² -
1787931244 30° C 73% 1019.7 hPa 0 mm - 469 W/m² -

* Rain latest hour (hover to see other rain measurements)
** Current wind speed in m/s (hover to see current wind gust speed)